Location: Newark
(34.6283°N, 36.0776°E)
Time: 06:57:28
(UTC+00:00)

A-11 Canister half - All Passes

Search period start: 17 September 2019 00:00
Search period end: 27 September 2019 00:00
Orbit: 1527 x 1682 km, 47.3° (Epoch: 16 September)

Date Brightness Start Highest point End Pass type
(mag) Time Alt. Az. Time Alt. Az. Time Alt. Az.
17 Sep - 01:21:44 10° SW 01:30:57 66° SE 01:40:26 10° ENE visible
17 Sep - 03:27:08 10° W 03:36:19 52° NNW 03:45:50 10° NE daylight
17 Sep - 05:34:25 10° WNW 05:43:18 39° N 05:52:28 10° ENE daylight
17 Sep - 07:40:22 10° NW 07:50:08 61° NNE 08:00:06 10° ESE daylight
17 Sep - 09:45:42 10° WNW 09:55:16 53° SW 10:05:00 10° SSE daylight
17 Sep - 11:56:36 10° WSW 11:58:53 11° WSW 12:01:11 10° SW daylight
17 Sep - 23:01:39 10° SSE 23:05:47 14° ESE 23:09:58 10° E visible
18 Sep - 01:00:13 10° SW 01:09:21 62° SE 01:18:45 10° ENE visible
18 Sep - 03:05:26 10° W 03:14:37 54° NNW 03:24:09 10° NE daylight
18 Sep - 05:12:42 10° WNW 05:21:34 39° N 05:30:42 10° ENE daylight
18 Sep - 07:18:43 10° NW 07:28:25 59° NNE 07:38:21 10° ESE daylight
18 Sep - 09:24:01 10° WNW 09:33:38 56° SW 09:43:26 10° SSE daylight
18 Sep - 11:33:53 10° W 11:37:19 12° WSW 11:40:47 10° SW daylight
18 Sep - 22:40:52 10° SE 22:44:15 12° ESE 22:47:39 10° E visible
19 Sep - 00:38:41 10° SSW 00:47:46 59° SE 00:57:05 10° ENE visible
19 Sep - 02:43:43 10° WSW 02:52:56 55° NNW 03:02:29 10° NE visible
19 Sep - 04:51:00 10° WNW 04:59:50 39° N 05:08:55 10° ENE daylight
19 Sep - 06:57:05 10° NW 07:06:43 57° NNE 07:16:35 10° ESE daylight
19 Sep - 09:02:21 10° WNW 09:12:01 59° SW 09:21:52 10° SSE daylight
19 Sep - 11:11:29 10° W 11:15:45 13° WSW 11:20:02 10° SSW daylight
19 Sep - 22:20:24 10° SE 22:22:43 11° ESE 22:25:03 10° ESE visible
20 Sep - 00:17:10 10° SSW 00:26:10 56° SE 00:35:24 10° ENE visible
20 Sep - 02:22:02 10° WSW 02:31:16 57° NNW 02:40:48 10° NE visible
20 Sep - 04:29:17 10° WNW 04:38:05 39° N 04:47:09 10° ENE daylight
20 Sep - 06:35:27 10° NW 06:45:01 55° NNE 06:54:50 10° E daylight
20 Sep - 08:40:41 10° WNW 08:50:23 62° SW 09:00:18 10° SE daylight
20 Sep - 10:49:17 10° W 10:54:11 15° WSW 10:59:07 10° SSW daylight
20 Sep - 23:55:40 10° SSW 00:04:36 53° SE 00:13:42 10° ENE visible
21 Sep - 02:00:21 10° WSW 02:09:35 59° NNW 02:19:07 10° NE visible
21 Sep - 04:07:34 10° WNW 04:16:21 39° N 04:25:23 10° ENE daylight
21 Sep - 06:13:49 10° NW 06:23:18 54° NNE 06:33:05 10° E daylight
21 Sep - 08:19:01 10° WNW 08:28:45 65° SW 08:38:42 10° SE daylight
21 Sep - 10:27:10 10° W 10:32:36 16° WSW 10:38:06 10° SSW daylight
21 Sep - 23:34:10 10° SSW 23:43:00 50° SE 23:52:01 10° ENE visible
22 Sep - 01:38:41 10° WSW 01:47:55 61° NNW 01:57:28 10° NE visible
22 Sep - 03:45:52 10° WNW 03:54:37 39° N 04:03:37 10° ENE daylight
22 Sep - 05:52:10 10° NW 06:01:36 52° NNE 06:11:19 10° E daylight
22 Sep - 07:57:22 10° WNW 08:07:07 68° SW 08:17:07 10° SE daylight
22 Sep - 10:05:08 10° W 10:11:02 17° WSW 10:17:00 10° SSW daylight
22 Sep - 23:12:42 10° SSW 23:21:26 47° SE 23:30:19 10° ENE visible
23 Sep - 01:16:59 10° WSW 01:26:15 63° NNW 01:35:48 10° NE visible
23 Sep - 03:24:09 10° WNW 03:32:53 39° N 03:41:53 10° ENE daylight
23 Sep - 05:30:32 10° NW 05:39:54 51° NNE 05:49:32 10° E daylight
23 Sep - 07:35:43 10° WNW 07:45:29 72° SW 07:55:30 10° SE daylight
23 Sep - 09:43:10 10° W 09:49:27 19° SW 09:55:49 10° SSW daylight
23 Sep - 22:51:14 10° SSW 22:59:51 45° SE 23:08:36 10° ENE visible
24 Sep - 00:55:19 10° WSW 01:04:36 66° NNW 01:14:08 10° NE visible
24 Sep - 03:02:26 10° WNW 03:11:09 39° N 03:20:07 10° ENE visible
24 Sep - 05:08:53 10° NW 05:18:11 49° NNE 05:27:46 10° E daylight
24 Sep - 07:14:04 10° WNW 07:23:51 75° SW 07:33:53 10° SE daylight
24 Sep - 09:21:14 10° W 09:27:52 20° SW 09:34:37 10° SSW daylight
24 Sep - 22:29:46 10° SSW 22:38:17 42° SE 22:46:54 10° ENE visible
25 Sep - 00:33:40 10° WSW 00:42:56 68° NNW 00:52:29 10° NE visible
25 Sep - 02:40:43 10° WNW 02:49:25 39° N 02:58:23 10° ENE visible
25 Sep - 04:47:15 10° NW 04:56:29 48° NNE 05:05:59 10° E daylight
25 Sep - 06:52:26 10° NW 07:02:12 78° SW 07:12:15 10° SE daylight
25 Sep - 08:59:21 10° W 09:06:18 22° SW 09:13:22 10° S daylight
25 Sep - 22:08:20 10° SSW 22:16:43 39° SE 22:25:11 10° ENE visible
26 Sep - 00:12:00 10° WSW 00:21:17 70° NNW 00:30:50 10° NE visible
26 Sep - 02:19:00 10° WNW 02:27:42 40° N 02:36:39 10° ENE visible
26 Sep - 04:25:36 10° NW 04:34:46 47° NNE 04:44:12 10° E daylight
26 Sep - 06:30:48 10° NW 06:40:34 81° SW 06:50:37 10° SE daylight
26 Sep - 08:37:29 10° WNW 08:44:43 23° SW 08:52:05 10° S daylight
26 Sep - 21:46:54 10° SSW 21:55:09 37° SE 22:03:28 10° ENE visible
